This is the latest recevied weather packets stored in our database for station/object AE5EW. If no packets are shown the sender has not sent any weather packets the latest 10 day(s).
| Time | Temp. | Humidity | Pressure | Rain* | Wind** | Luminosity | Snow |
|---|---|---|---|---|---|---|---|
| 1787529847 | 28.89° C | 79% | 1015.4 hPa | 0 mm | - | - | - |
| 1787529542 | 28.89° C | 77% | 1015.4 hPa | 0 mm | - | - | - |
| 1787529241 | 28.89° C | 78% | 1015.5 hPa | 0 mm | - | - | - |
| 1787528936 | 28.89° C | 77% | 1015.4 hPa | 0 mm | - | - | - |
| 1787528634 | 29.44° C | 73% | 1015.5 hPa | 0 mm | - | - | - |
| 1787528334 | 29.44° C | 76% | 1015.4 hPa | 0 mm | - | - | - |
| 1787528030 | 30.56° C | 75% | 1015.4 hPa | 0 mm | - | - | - |
| 1787527726 | 31.11° C | 69% | 1015.4 hPa | 0 mm | - | - | - |
| 1787527421 | 31.67° C | 67% | 1015.3 hPa | 0 mm | - | - | - |
| 1787527117 | 32.22° C | 65% | 1015.5 hPa | 0 mm | - | - | - |
| 1787526812 | 32.78° C | 64% | 1015.6 hPa | 0 mm | - | - | - |
| 1787526509 | 32.78° C | 62% | 1015.4 hPa | 0 mm | - | - | - |
| 1787526205 | 33.33° C | 58% | 1015.4 hPa | 0 mm | - | - | - |
| 1787525901 | 33.33° C | 59% | 1015.5 hPa | 0 mm | - | - | - |
| 1787525600 | 33.33° C | 58% | 1015.5 hPa | 0 mm | - | - | - |
| 1787525295 | 33.89° C | 60% | 1015.5 hPa | 0 mm | - | - | - |
| 1787524993 | 33.89° C | 56% | 1015.4 hPa | 0 mm | - | - | - |
| 1787524692 | 33.89° C | 56% | 1015.3 hPa | 0 mm | - | - | - |
| 1787524388 | 33.89° C | 56% | 1015.4 hPa | 0 mm | - | - | - |
| 1787524082 | 33.33° C | 53% | 1015.5 hPa | 0 mm | - | - | - |
| 1787523779 | 33.89° C | 55% | 1015.4 hPa | 0 mm | - | - | - |
| 1787523478 | 33.89° C | 55% | 1015.4 hPa | 0 mm | - | - | - |
| 1787523173 | 33.89° C | 52% | 1015.4 hPa | 0 mm | - | - | - |
| 1787522869 | 34.44° C | 53% | 1015.3 hPa | 0 mm | - | - | - |
| 1787522565 | 33.89° C | 54% | 1015.4 hPa | 0 mm | - | - | - |
* Rain latest hour (hover to see other rain measurements)
** Current wind speed in m/s (hover to see current wind gust speed)